Location: Puerto Pe�asco
(31.3170°N, 113.5330°W)
Time: 14:17:09
(UTC-06:00)

OTV 5 (USA 277) - Pass Details

Date: 28 September 2018
Orbit: 387 x 394 km, 54.5° (Epoch: 08 September)

Event Time Altitude Azimuth Distance (km) Brightness Sun altitude
Exits shadow 06:30:08 17° 304° (NW) 1,084 ? -12.8°
Maximum altitude 06:30:44 18° 319° (NW) 1,053 ? -12.6°
Drops below altitude 10° 06:33:00 10° 4° (N) 1,430 ? -12.2°
Sets 06:35:32 0° 25° (NNE) 2,288 ? -11.6°
